[[{"header":{"parameterUnit":"m.s-1","parameterCategory":2,"la1":30.2991,"la2":30.254,"lo1":-89.0895,"lo2":-89.0444,"dy":0.0017,"dx":0.0017,"nx":28,"ny":28,"refTime":"2025-11-05T09:00:00:Z","depth":"0","parameterNumber":2,"parameterNumberName":"U-component_of_CURRENTS"},"data":[0,0,0,0,0,0,0,0,0,0,0,0,0,0,0,0,0,0,0,0,0,0,0,0,0,0,0,0,0,0,0,0,0,0,0,0,0,0,0,0,0,0,0,0,0,0,0,0,0,0,0,0,0,0,0,0,0,0,-0.3029,-0.303,0,-0.3049,-0.3049,-0.3049,-0.3008,-0.3007,-0.3006,-0.3005,-0.2942,-0.2942,-0.2941,0,0,0,0,0,0,0,0,0,0,0,0,0,-0.2953,-0.2954,-0.3029,-0.303,-0.303,-0.3049,-0.3049,-0.3049,-0.3008,-0.3007,-0.3005,-0.3004,-0.2942,-0.2942,-0.2941,0,0,0,0,0,0,0,0,0,0,0,0,0,-0.2977,-0.2954,-0.3029,-0.3014,-0.3013,-0.3049,-0.3049,-0.3049,-0.3008,-0.3006,-0.3005,-0.3003,-0.2943,-0.2942,-0.2941,-0.2966,0,0,-0.2938,-0.2937,0,0,0,0,0,0,0,0,-0.2976,-0.298,-0.3016,-0.3015,-0.3014,-0.3027,-0.2999,-0.3018,-0.3008,-0.3007,-0.3005,-0.3003,-0.2966,-0.2963,-0.2967,-0.2963,-0.296,-0.2937,-0.2937,-0.2936,-0.2936,0,0,0,0,0,0,0,-0.2974,-0.2979,-0.3034,-0.3017,-0.3016,-0.3006,-0.3007,-0.3003,-0.2991,-0.3007,-0.3005,-0.3012,-0.2964,-0.2968,-0.2965,-0.2959,-0.2938,-0.2937,-0.2936,-0.2936,-0.2972,-0.2973,0,0,0,0,0,0,-0.2981,-0.2978,-0.3033,-0.3034,-0.2995,-0.3009,-0.301,-0.3022,-0.2993,-0.2989,-0.3014,-0.301,-0.2971,-0.2966,-0.2963,-0.2985,-0.2936,-0.2935,-0.2935,-0.297,-0.2972,-0.2974,0,0,0,0,0,0,-0.2979,-0.2986,-0.3032,-0.3008,-0.3014,-0.3012,-0.3025,-0.3023,-0.3021,-0.3,-0.2993,-0.3013,-0.2969,-0.2964,-0.2964,-0.2982,-0.2935,-0.2934,-0.2968,-0.2971,-0.2973,-0.3034,0,0,0,0,0,0,-0.2977,-0.2985,-0.299,-0.3009,-0.3016,-0.3059,-0.3027,-0.3025,-0.303,-0.3026,-0.2997,-0.299,-0.2968,-0.2966,-0.2963,-0.298,-0.2933,-0.2966,-0.2969,-0.2972,-0.303,-0.3038,-0.3045,0,0,0,0,0,-0.2974,-0.2992,-0.299,-0.2997,-0.3025,-0.306,-0.3063,-0.3053,-0.3032,-0.3042,-0.3022,-0.2991,-0.2982,-0.2967,-0.2963,-0.298,-0.2965,-0.2968,-0.2972,-0.3027,-0.3037,-0.3045,0,0,0,0,0,0,-0.2957,-0.2991,-0.2988,-0.3014,-0.3037,-0.3054,-0.3061,-0.3058,-0.3052,-0.304,-0.301,-0.3003,-0.3011,-0.2993,-0.2977,-0.3002,-0.2969,-0.2972,-0.3012,-0.3021,-0.3029,-0.3028,-0.2932,0,0,0,0,0,-0.296,-0.2979,-0.3012,-0.3028,-0.3043,-0.3052,-0.3062,-0.3062,-0.3065,-0.306,-0.3043,-0.3028,-0.3027,-0.302,-0.3015,-0.3029,-0.3,-0.304,-0.3047,-0.3054,-0.3053,-0.3035,-0.304,-0.2985,-0.2985,-0.2985,0,0,-0.2953,-0.2977,-0.2984,-0.3026,-0.3038,-0.3073,-0.3053,-0.3076,-0.3098,-0.3055,-0.3067,-0.3053,-0.3037,-0.3053,-0.3054,-0.3036,-0.3055,-0.3058,-0.3064,-0.3059,-0.3039,-0.3044,-0.3049,-0.2988,-0.2987,-0.2987,0,0,-0.2963,-0.2978,-0.3001,-0.3032,-0.3067,-0.3082,-0.3092,-0.3116,-0.3117,-0.3138,-0.3112,-0.311,-0.3107,-0.3102,-0.3098,-0.3146,-0.3097,-0.3147,-0.3181,-0.3165,-0.3169,-0.3172,-0.314,-0.314,-0.315,-0.315,-0.315,0,-0.2953,-0.299,-0.3013,-0.3053,-0.3076,-0.309,-0.3124,-0.3143,-0.3161,-0.3165,-0.3147,-0.3147,-0.3131,-0.3149,-0.3167,-0.3162,-0.3138,-0.3145,-0.3173,-0.3175,-0.3177,-0.3144,-0.3143,-0.3153,-0.3153,-0.3153,-0.3152,0,-0.2986,-0.3019,-0.3038,-0.3091,-0.3124,-0.3155,-0.3195,-0.3215,-0.3214,-0.3224,-0.3236,-0.3221,-0.3214,-0.322,-0.3207,-0.3223,-0.3197,-0.3184,-0.3145,-0.3186,-0.3149,-0.3147,-0.3158,-0.3157,-0.3156,-0.3155,0,0,-0.2945,-0.3041,-0.3045,-0.3074,-0.3145,-0.3171,-0.3223,-0.3264,-0.3281,-0.3294,-0.3305,-0.3314,-0.3293,-0.3289,-0.3273,-0.3265,-0.326,-0.3234,-0.3232,-0.3195,-0.3211,-0.3128,-0.3117,-0.3249,-0.3249,-0.3249,-0.3178,0,-0.2955,-0.3028,-0.3078,-0.3138,-0.3175,-0.3221,-0.3267,-0.3307,-0.3324,-0.3342,-0.3336,-0.3339,-0.3326,-0.3315,-0.331,-0.3273,-0.3257,-0.3279,-0.3184,-0.3181,-0.3095,-0.3113,-0.3015,-0.2938,-0.3176,-0.3175,-0.3175,0,-0.2958,-0.3011,-0.3073,-0.3158,-0.3177,-0.3216,-0.3273,-0.3317,-0.3362,-0.3373,-0.3383,-0.3375,-0.3375,-0.3349,-0.3306,-0.332,-0.3271,-0.3238,-0.3235,-0.3132,-0.3094,-0.2937,-0.2924,-0.291,-0.317,-0.3171,-0.3171,0,-0.2896,-0.2998,-0.304,-0.3072,-0.3177,-0.3203,-0.3249,-0.331,-0.3341,-0.338,-0.3392,-0.3397,-0.338,-0.3345,-0.3284,-0.3294,-0.3218,-0.3218,-0.3097,-0.309,-0.2973,-0.2955,-0.2925,-0.3177,-0.3177,-0.3177,-0.3177,0,-0.2877,-0.2906,-0.3012,-0.3035,-0.3076,-0.3164,-0.3202,-0.3252,-0.3317,-0.3341,-0.3388,-0.339,-0.3377,-0.3337,-0.3287,-0.3175,-0.3215,-0.3097,-0.3066,-0.2992,-0.2978,-0.2933,-0.2951,-0.3174,-0.3175,-0.3175,-0.3176,0,-0.2788,-0.2866,-0.2913,-0.3018,-0.3045,-0.3065,-0.3164,-0.3191,-0.3273,-0.3302,-0.3313,-0.3368,-0.3319,-0.3286,-0.3213,-0.3156,-0.3014,-0.3018,-0.2924,-0.2884,-0.2759,-0.2784,-0.2688,-0.2611,-0.2878,-0.2876,-0.2874,0,-0.2745,-0.2762,-0.2863,-0.2879,-0.2918,-0.2975,-0.301,-0.3132,-0.317,-0.3273,-0.3272,-0.327,-0.322,-0.31,-0.3017,-0.2901,-0.2897,-0.2747,-0.2751,-0.2732,-0.2739,-0.2751,-0.2696,-0.2622,-0.2618,-0.2615,-0.2612,0,-0.2642,-0.2677,-0.2711,-0.2753,-0.279,-0.2838,-0.2906,-0.2935,-0.307,-0.3101,-0.3118,-0.3089,-0.3026,-0.2877,-0.2761,-0.2684,-0.2688,-0.2675,-0.2683,-0.2554,-0.2538,-0.2456,-0.2692,-0.2583,-0.2586,-0.2588,-0.259,-0.2591,-0.2533,-0.2528,-0.2572,-0.2591,-0.2635,-0.2657,-0.2642,-0.2735,-0.2759,-0.2781,-0.2885,-0.2816,-0.2777,-0.26,-0.2526,-0.2405,-0.2456,-0.2349,-0.2385,-0.2402,-0.2317,-0.2481,-0.2325,-0.2326,-0.2327,-0.2328,-0.2329,0,-0.2383,-0.2393,-0.2407,-0.2427,-0.2403,-0.2486,-0.2528,-0.2486,-0.2451,-0.2531,-0.2518,-0.2499,-0.2367,-0.2349,-0.2256,-0.2157,-0.211,-0.2116,-0.2132,-0.209,-0.2247,-0.2225,-0.2007,-0.2007,-0.2007,-0.2007,-0.2007,-0.2007,-0.2304,-0.2257,-0.2268,-0.2174,-0.2183,-0.2095,-0.2076,-0.2044,-0.2062,-0.2016,-0.205,-0.2126,-0.2142,-0.2291,-0.2168,-0.2067,-0.2018,-0.1952,-0.1972,-0.2128,-0.2154,-0.2179,-0.2162,-0.1935,-0.1935,-0.1748,-0.1747,-0.1746]},{"header":{"parameterUnit":"m.s-1","parameterCategory":2,"la1":30.2991,"la2":30.254,"lo1":-89.0895,"lo2":-89.0444,"dy":0.0017,"dx":0.0017,"nx":28,"ny":28,"refTime":"2025-11-05T09:00:00:Z","depth":"0","parameterNumber":3,"parameterNumberName":"V-component_of_CURRENTS"},"data":[0,0,0,0,0,0,0,0,0,0,0,0,0,0,0,0,0,0,0,0,0,0,0,0,0,0,0,0,0,0,0,0,0,0,0,0,0,0,0,0,0,0,0,0,0,0,0,0,0,0,0,0,0,0,0,0,0,0,-0.0239,-0.0238,0,-0.0143,-0.0142,-0.014,-0.0074,-0.0073,-0.0073,-0.0073,0.0068,0.0071,0.0075,0,0,0,0,0,0,0,0,0,0,0,0,0,-0.0298,-0.0297,-0.0239,-0.0238,-0.0237,-0.0143,-0.0142,-0.014,-0.0074,-0.0073,-0.0073,-0.0073,0.0067,0.0071,0.0075,0,0,0,0,0,0,0,0,0,0,0,0,0,-0.0243,-0.0297,-0.0239,-0.0194,-0.0189,-0.0143,-0.0142,-0.014,-0.0074,-0.0073,-0.0073,-0.0072,0.0065,0.007,0.0075,0.0097,0,0,0.0091,0.0093,0,0,0,0,0,0,0,0,-0.0246,-0.024,-0.0201,-0.0197,-0.0191,-0.0121,-0.0111,-0.0059,-0.0074,-0.0116,-0.0073,-0.0072,0.0007,0.0017,0.0036,0.0103,0.0109,0.0092,0.0095,0.0097,0.0098,0,0,0,0,0,0,0,-0.025,-0.0244,-0.0199,-0.02,-0.0194,-0.0155,-0.0147,-0.01,-0.0056,-0.0112,-0.0107,-0.01,0.0011,0.0031,0.004,0.0111,0.0091,0.0096,0.0099,0.0101,0.0223,0.0223,0,0,0,0,0,0,-0.0269,-0.0248,-0.0202,-0.0196,-0.022,-0.0155,-0.0146,-0.0143,-0.0057,-0.0045,-0.01,-0.0097,0.0022,0.0034,0.0045,0.0081,0.0097,0.0102,0.0105,0.0223,0.0223,0.0223,0,0,0,0,0,0,-0.0271,-0.0266,-0.0206,-0.0221,-0.0211,-0.0155,-0.0152,-0.0141,-0.0122,-0.0049,-0.0035,-0.0092,0.0023,0.0038,0.0088,0.0087,0.0104,0.0109,0.0223,0.0223,0.0223,0.015,0,0,0,0,0,0,-0.0273,-0.0268,-0.0273,-0.0222,-0.0211,-0.0189,-0.0152,-0.014,-0.0119,-0.0113,-0.0038,-0.0024,0.0024,0.0079,0.0093,0.0094,0.0113,0.0223,0.0223,0.0223,0.0152,0.0148,0.0144,0,0,0,0,0,-0.0276,-0.0291,-0.0274,-0.0269,-0.022,-0.0189,-0.018,-0.0137,-0.0119,-0.0116,-0.006,-0.0026,0.0091,0.0084,0.0099,0.0102,0.0223,0.0223,0.0223,0.0154,0.0149,0.0144,0,0,0,0,0,0,-0.0319,-0.0284,-0.0265,-0.0268,-0.0235,-0.0179,-0.0175,-0.0144,-0.0098,-0.0093,-0.0023,-0.0005,0.0037,0.008,0.007,0.0139,0.0162,0.0165,0.0104,0.0099,0.0095,0.0076,0.0117,0,0,0,0,0,-0.0333,-0.0335,-0.029,-0.0293,-0.0281,-0.0229,-0.0212,-0.0183,-0.0136,-0.0116,-0.0061,-0.0001,0.005,0.0082,0.013,0.0169,0.0219,0.0182,0.0177,0.0173,0.0169,0.0245,0.0248,0.0225,0.0225,0.0225,0,0,-0.0351,-0.0332,-0.0333,-0.0302,-0.0273,-0.0265,-0.0217,-0.0199,-0.0185,-0.0107,-0.0073,-0.0017,0.0056,0.0099,0.0122,0.0136,0.0206,0.0174,0.017,0.0168,0.0246,0.0248,0.025,0.0225,0.0225,0.0225,0,0,-0.0395,-0.0372,-0.039,-0.0367,-0.0334,-0.0297,-0.0297,-0.0244,-0.0214,-0.0174,-0.0114,-0.0058,0.0016,0.0075,0.0113,0.0116,0.0177,0.0128,0.0098,0.0172,0.0174,0.0177,0.0238,0.0247,0.0131,0.0131,0.0131,0,-0.0421,-0.0434,-0.039,-0.0398,-0.0385,-0.0319,-0.033,-0.0288,-0.0224,-0.0194,-0.0175,-0.005,0.0007,0.0076,0.0075,0.0107,0.0152,0.0108,0.0166,0.017,0.0174,0.0236,0.0246,0.0127,0.0128,0.0128,0.0129,0,-0.0475,-0.0482,-0.049,-0.0476,-0.0454,-0.0453,-0.0392,-0.0362,-0.0316,-0.0264,-0.0192,-0.0106,-0.0029,-0.0003,0.0037,0.0095,0.0119,0.0146,0.0174,0.0171,0.0237,0.0249,0.0122,0.0124,0.0125,0.0126,0,0,-0.0539,-0.0533,-0.0535,-0.0543,-0.0496,-0.0485,-0.0455,-0.0404,-0.0376,-0.0301,-0.0255,-0.0161,-0.0105,-0.0058,0.0008,0.0072,0.0138,0.0111,0.0116,0.0162,0.0293,0.0348,0.0367,0.0173,0.0175,0.0177,0.0325,0,-0.0595,-0.0641,-0.0608,-0.0632,-0.0648,-0.0574,-0.055,-0.0488,-0.0417,-0.0352,-0.0244,-0.018,-0.0126,-0.009,-0.0016,0.0104,0.0167,0.0094,0.0297,0.0303,0.0345,0.0383,0.0438,0.0579,0.0338,0.034,0.0342,0,-0.0658,-0.0679,-0.0726,-0.0714,-0.0711,-0.0705,-0.0644,-0.0612,-0.0495,-0.0437,-0.0341,-0.0252,-0.0138,-0.0101,0.0103,0.0053,0.0158,0.0248,0.0257,0.0342,0.0381,0.0545,0.0611,0.0785,0.0361,0.036,0.0358,0,-0.0734,-0.0755,-0.0797,-0.0794,-0.077,-0.0765,-0.0738,-0.0642,-0.0605,-0.0488,-0.0441,-0.029,-0.0204,-0.0056,0.0138,0.012,0.0365,0.0369,0.0518,0.0523,0.0628,0.0639,0.088,0.0502,0.0502,0.0501,0.0501,0,-0.0809,-0.0838,-0.084,-0.0865,-0.0898,-0.0843,-0.0839,-0.0782,-0.0688,-0.0633,-0.0496,-0.0407,-0.0189,-0.0016,0.0136,0.0381,0.0373,0.0524,0.0574,0.0604,0.061,0.0812,0.0861,0.0507,0.0506,0.0504,0.0504,0,-0.0887,-0.0889,-0.0939,-0.0941,-0.0942,-0.0964,-0.0926,-0.0909,-0.0809,-0.0731,-0.0699,-0.048,-0.0241,-0.0015,0.0257,0.0392,0.072,0.0685,0.07,0.0748,0.1026,0.1066,0.133,0.1426,0.0868,0.087,0.0872,0,-0.0932,-0.097,-0.1011,-0.1046,-0.1052,-0.1068,-0.1073,-0.0988,-0.0953,-0.0763,-0.0726,-0.0478,-0.027,0.0155,0.0442,0.0741,0.0853,0.0943,0.0917,0.1069,0.1151,0.1169,0.123,0.1029,0.1032,0.1035,0.1037,0,-0.1013,-0.1027,-0.1068,-0.115,-0.118,-0.1202,-0.1191,-0.1182,-0.1052,-0.094,-0.0736,-0.0551,-0.0113,0.0285,0.0672,0.0846,0.1074,0.1003,0.1177,0.1314,0.1336,0.1443,0.0888,0.1059,0.1057,0.1056,0.1054,0.1053,-0.106,-0.1115,-0.1173,-0.1242,-0.1283,-0.1311,-0.1314,-0.1254,-0.1166,-0.0957,-0.0763,-0.0421,0.0139,0.0715,0.0915,0.1353,0.128,0.1473,0.1514,0.1522,0.161,0.1093,0.1305,0.1304,0.1304,0.1303,0.1302,0,-0.1115,-0.1174,-0.1256,-0.1331,-0.1388,-0.1381,-0.1366,-0.1312,-0.1189,-0.094,-0.0689,-0.0017,0.0528,0.1019,0.1628,0.1853,0.1884,0.1963,0.2016,0.2058,0.1639,0.1641,0.1916,0.1916,0.1916,0.1916,0.1915,0.1915,-0.1143,-0.1236,-0.1282,-0.1393,-0.144,-0.1462,-0.1445,-0.1317,-0.1127,-0.0687,-0.0276,0.0061,0.0768,0.1728,0.2282,0.2328,0.2501,0.2485,0.2567,0.2289,0.2246,0.2205,0.2224,0.2616,0.2617,0.2986,0.299,0.2992]}],[{"header":{"parameterUnit":"m.s-1","parameterCategory":2,"la1":30.2991,"la2":30.254,"lo1":-89.0895,"lo2":-89.0444,"dy":0.0017,"dx":0.0017,"nx":28,"ny":28,"refTime":"2025-11-05T09:00:00:Z","depth":"2","parameterNumber":2,"parameterNumberName":"U-component_of_CURRENTS"},"data":[0,0,0,0,0,0,0,0,0,0,0,0,0,0,0,0,0,0,0,0,0,0,0,0,0,0,0,0,0,0,0,0,0,0,0,0,0,0,0,0,0,0,0,0,0,0,0,0,0,0,0,0,0,0,0,0,0,0,-0.2839,-0.2839,0,-0.2863,-0.2863,-0.2863,-0.2833,-0.2832,-0.2831,-0.283,-0.2781,-0.278,-0.278,0,0,0,0,0,0,0,0,0,0,0,0,0,-0.276,-0.2762,-0.2839,-0.2839,-0.284,-0.2863,-0.2863,-0.2863,-0.2833,-0.2832,-0.2831,-0.283,-0.2781,-0.278,-0.278,0,0,0,0,0,0,0,0,0,0,0,0,0,-0.2788,-0.2762,-0.2839,-0.283,-0.2829,-0.2863,-0.2863,-0.2863,-0.2833,-0.2832,-0.283,-0.2829,-0.2781,-0.278,-0.278,-0.28,0,0,-0.2777,-0.2777,0,0,0,0,0,0,0,0,-0.2786,-0.279,-0.283,-0.283,-0.283,-0.2846,-0.2818,-0.284,-0.2833,-0.2828,-0.283,-0.2829,-0.2799,-0.2797,-0.2801,-0.2798,-0.2796,-0.2777,-0.2777,-0.2776,-0.2776,0,0,0,0,0,0,0,-0.2784,-0.2789,-0.2845,-0.2831,-0.2831,-0.2823,-0.2825,-0.2822,-0.2817,-0.2829,-0.2827,-0.2835,-0.2798,-0.2801,-0.2799,-0.2795,-0.2777,-0.2776,-0.2776,-0.2776,-0.2815,-0.2817,0,0,0,0,0,0,-0.279,-0.2788,-0.2845,-0.2846,-0.2808,-0.2826,-0.2828,-0.284,-0.2818,-0.2815,-0.2836,-0.2834,-0.2803,-0.28,-0.2797,-0.2825,-0.2776,-0.2776,-0.2775,-0.2814,-0.2816,-0.2817,0,0,0,0,0,0,-0.2788,-0.2795,-0.2844,-0.2819,-0.2825,-0.2829,-0.2842,-0.2841,-0.2843,-0.2826,-0.282,-0.284,-0.2802,-0.2798,-0.2802,-0.2822,-0.2775,-0.2774,-0.2812,-0.2814,-0.2816,-0.2877,0,0,0,0,0,0,-0.2786,-0.2794,-0.28,-0.282,-0.2827,-0.2871,-0.2844,-0.2843,-0.2852,-0.2849,-0.2827,-0.2821,-0.2801,-0.2804,-0.2802,-0.282,-0.2774,-0.281,-0.2813,-0.2816,-0.2873,-0.2881,-0.2888,0,0,0,0,0,-0.2783,-0.2801,-0.28,-0.2807,-0.2837,-0.2872,-0.2875,-0.287,-0.2853,-0.2864,-0.285,-0.2821,-0.282,-0.2805,-0.2801,-0.282,-0.2809,-0.2812,-0.2815,-0.287,-0.2879,-0.2888,0,0,0,0,0,0,-0.2766,-0.2801,-0.28,-0.2826,-0.285,-0.2868,-0.2877,-0.2876,-0.2875,-0.2866,-0.284,-0.2835,-0.2846,-0.2831,-0.2814,-0.2842,-0.281,-0.2813,-0.2853,-0.2862,-0.2869,-0.2868,-0.2773,0,0,0,0,0,-0.2769,-0.2789,-0.2821,-0.2839,-0.2854,-0.2866,-0.2877,-0.288,-0.2886,-0.2883,-0.2871,-0.286,-0.2861,-0.2858,-0.2854,-0.287,-0.2842,-0.2882,-0.2889,-0.2896,-0.2895,-0.2879,-0.2884,-0.2829,-0.2828,-0.2828,0,0,-0.2764,-0.2787,-0.2796,-0.2837,-0.285,-0.2885,-0.2868,-0.2894,-0.2917,-0.2879,-0.2896,-0.2885,-0.2872,-0.289,-0.2893,-0.2876,-0.2898,-0.29,-0.2905,-0.2901,-0.2883,-0.2888,-0.2893,-0.2831,-0.283,-0.283,0,0,-0.2774,-0.279,-0.2813,-0.2844,-0.288,-0.2895,-0.2906,-0.2933,-0.2937,-0.2961,-0.294,-0.2941,-0.2943,-0.2939,-0.2936,-0.2985,-0.2939,-0.2987,-0.3021,-0.3006,-0.301,-0.3013,-0.2984,-0.2984,-0.299,-0.299,-0.299,0,-0.2765,-0.2801,-0.2825,-0.2864,-0.2887,-0.2904,-0.2938,-0.2958,-0.2981,-0.2987,-0.2973,-0.2979,-0.2967,-0.2985,-0.3004,-0.2999,-0.2978,-0.2986,-0.3014,-0.3017,-0.3019,-0.2988,-0.2987,-0.2993,-0.2993,-0.2992,-0.2992,0,-0.2797,-0.283,-0.2849,-0.2901,-0.2934,-0.2966,-0.3006,-0.3029,-0.3033,-0.3045,-0.3062,-0.3051,-0.3049,-0.3055,-0.3044,-0.3062,-0.3038,-0.3024,-0.2987,-0.3027,-0.2993,-0.2991,-0.2998,-0.2997,-0.2996,-0.2995,0,0,-0.276,-0.2852,-0.2857,-0.2885,-0.2955,-0.2981,-0.3034,-0.3076,-0.3095,-0.3114,-0.3129,-0.3142,-0.3126,-0.3123,-0.311,-0.3103,-0.3102,-0.3075,-0.3073,-0.3039,-0.3058,-0.2976,-0.2966,-0.3091,-0.3091,-0.3092,-0.3027,0,-0.277,-0.2841,-0.2889,-0.2948,-0.2983,-0.303,-0.3076,-0.3118,-0.3139,-0.3161,-0.3159,-0.3167,-0.3156,-0.315,-0.3147,-0.3114,-0.3099,-0.3119,-0.303,-0.3027,-0.2943,-0.2962,-0.2752,-0.2671,-0.3025,-0.3024,-0.3024,0,-0.2775,-0.2825,-0.2885,-0.2967,-0.2986,-0.3026,-0.3086,-0.313,-0.3178,-0.3193,-0.3208,-0.3204,-0.3209,-0.3185,-0.3148,-0.3161,-0.3116,-0.3085,-0.3081,-0.298,-0.2942,-0.2689,-0.2653,-0.302,-0.302,-0.3021,-0.3021,0,-0.2717,-0.2814,-0.2856,-0.2887,-0.2988,-0.3016,-0.3063,-0.3126,-0.3157,-0.3204,-0.3217,-0.3228,-0.3216,-0.3184,-0.313,-0.3139,-0.307,-0.3068,-0.2951,-0.2944,-0.2733,-0.2708,-0.303,-0.303,-0.3031,-0.3031,-0.3031,0,-0.2699,-0.2729,-0.2831,-0.2854,-0.2896,-0.2982,-0.3023,-0.3074,-0.3141,-0.3165,-0.3217,-0.322,-0.3215,-0.318,-0.3134,-0.3028,-0.3068,-0.2952,-0.2922,-0.2749,-0.2727,-0.3007,-0.3005,-0.3028,-0.3029,-0.3029,-0.303,0,-0.2616,-0.2691,-0.2737,-0.284,-0.2867,-0.289,-0.2988,-0.3015,-0.3099,-0.313,-0.3144,-0.3201,-0.3159,-0.3132,-0.3066,-0.301,-0.2932,-0.288,-0.2675,-0.2622,-0.2817,-0.282,-0.2751,-0.2747,-0.2744,-0.2742,-0.274,0,-0.2577,-0.2593,-0.2692,-0.2708,-0.2748,-0.2806,-0.2841,-0.296,-0.2996,-0.3101,-0.3099,-0.3105,-0.3057,-0.2949,-0.2856,-0.2745,-0.2833,-0.25,-0.2483,-0.2811,-0.2789,-0.2796,-0.2802,-0.2225,-0.2219,-0.2214,-0.221,0,-0.2479,-0.2514,-0.2547,-0.2589,-0.2626,-0.2672,-0.2738,-0.2763,-0.2894,-0.2925,-0.2941,-0.2916,-0.285,-0.2643,-0.2532,-0.2448,-0.2508,-0.2396,-0.2767,-0.2342,-0.2313,-0.2293,-0.2316,-0.2166,-0.217,-0.2173,-0.2176,-0.2178,-0.2378,-0.2373,-0.2415,-0.2435,-0.2477,-0.2493,-0.2477,-0.2558,-0.2577,-0.2574,-0.2686,-0.2569,-0.2548,-0.2255,-0.214,-0.206,-0.2231,-0.2129,-0.2144,-0.2165,-0.2129,-0.2098,-0.1903,-0.1906,-0.1908,-0.191,-0.1912,0,-0.2234,-0.2244,-0.2257,-0.2274,-0.2247,-0.2331,-0.2364,-0.2301,-0.2253,-0.2283,-0.2255,-0.1997,-0.1873,-0.186,-0.167,-0.1642,-0.163,-0.1574,-0.1556,-0.1601,-0.164,-0.1579,-0.1206,-0.1203,-0.1201,-0.12,0,0,-0.2158,-0.211,-0.2117,-0.2022,-0.2032,-0.1937,-0.1913,-0.1842,-0.1813,-0.1672,-0.1613,-0.174,-0.1784,-0.1482,-0.1425,-0.1283,-0.1423,-0.1218,-0.1783,-0.1804,-0.1841,-0.1957,-0.1912,0,0,0,0,0]},{"header":{"parameterUnit":"m.s-1","parameterCategory":2,"la1":30.2991,"la2":30.254,"lo1":-89.0895,"lo2":-89.0444,"dy":0.0017,"dx":0.0017,"nx":28,"ny":28,"refTime":"2025-11-05T09:00:00:Z","depth":"2","parameterNumber":3,"parameterNumberName":"V-component_of_CURRENTS"},"data":[0,0,0,0,0,0,0,0,0,0,0,0,0,0,0,0,0,0,0,0,0,0,0,0,0,0,0,0,0,0,0,0,0,0,0,0,0,0,0,0,0,0,0,0,0,0,0,0,0,0,0,0,0,0,0,0,0,0,-0.0298,-0.0297,0,-0.0208,-0.0207,-0.0205,-0.0141,-0.0141,-0.0141,-0.014,-0.0006,-0.0002,0.0001,0,0,0,0,0,0,0,0,0,0,0,0,0,-0.0352,-0.0351,-0.0298,-0.0297,-0.0296,-0.0208,-0.0207,-0.0205,-0.0141,-0.0141,-0.014,-0.014,-0.0007,-0.0003,0.0001,0,0,0,0,0,0,0,0,0,0,0,0,0,-0.03,-0.0351,-0.0298,-0.0255,-0.025,-0.0208,-0.0207,-0.0205,-0.0141,-0.0141,-0.014,-0.014,-0.0008,-0.0003,0.0002,0.002,0,0,0.0016,0.0019,0,0,0,0,0,0,0,0,-0.0303,-0.0298,-0.0262,-0.0258,-0.0252,-0.0187,-0.0176,-0.0128,-0.0142,-0.0181,-0.014,-0.014,-0.0064,-0.0054,-0.0037,0.0027,0.0033,0.0017,0.002,0.0022,0.0023,0,0,0,0,0,0,0,-0.0307,-0.0301,-0.0261,-0.0261,-0.0255,-0.0218,-0.0211,-0.0166,-0.0124,-0.0177,-0.0173,-0.0166,-0.006,-0.0042,-0.0033,0.0035,0.0017,0.0021,0.0024,0.0026,0.0141,0.0141,0,0,0,0,0,0,-0.0325,-0.0305,-0.0263,-0.0258,-0.0279,-0.0218,-0.021,-0.0207,-0.0126,-0.0114,-0.0166,-0.0163,-0.005,-0.0039,-0.0028,0.0008,0.0022,0.0026,0.0029,0.014,0.0141,0.0141,0,0,0,0,0,0,-0.0327,-0.0323,-0.0267,-0.028,-0.0271,-0.0219,-0.0215,-0.0206,-0.0187,-0.0118,-0.0105,-0.0158,-0.0049,-0.0035,0.0013,0.0013,0.0029,0.0033,0.014,0.014,0.0141,0.0075,0,0,0,0,0,0,-0.0329,-0.0324,-0.033,-0.0282,-0.0271,-0.0251,-0.0216,-0.0204,-0.0184,-0.0179,-0.0106,-0.0093,-0.0048,0.0005,0.0017,0.002,0.0037,0.014,0.014,0.0141,0.0077,0.0073,0.0069,0,0,0,0,0,-0.0331,-0.0346,-0.0331,-0.0325,-0.028,-0.0251,-0.0242,-0.0201,-0.0184,-0.0181,-0.0128,-0.0095,0.0016,0.0009,0.0024,0.0028,0.014,0.014,0.0141,0.0078,0.0073,0.0069,0,0,0,0,0,0,-0.0372,-0.0339,-0.0322,-0.0325,-0.0294,-0.0241,-0.0237,-0.0208,-0.0164,-0.0159,-0.0092,-0.0075,-0.0035,0.0005,-0.0004,0.0062,0.0083,0.0086,0.003,0.0026,0.0022,0.0005,0.0041,0,0,0,0,0,-0.0385,-0.0387,-0.0345,-0.0348,-0.0337,-0.0288,-0.0272,-0.0245,-0.02,-0.018,-0.0128,-0.0072,-0.0023,0.0007,0.0053,0.009,0.0137,0.0103,0.0099,0.0095,0.0092,0.0165,0.0167,0.0142,0.0142,0.0142,0,0,-0.0402,-0.0384,-0.0385,-0.0357,-0.033,-0.0321,-0.0277,-0.026,-0.0246,-0.0173,-0.0139,-0.0086,-0.0017,0.0024,0.0046,0.0059,0.0127,0.0096,0.0092,0.009,0.0166,0.0168,0.017,0.0142,0.0142,0.0142,0,0,-0.0443,-0.0422,-0.0439,-0.0417,-0.0385,-0.0352,-0.0351,-0.0301,-0.0272,-0.0235,-0.0177,-0.0123,-0.0054,0.0002,0.0038,0.0042,0.01,0.0053,0.0027,0.0098,0.0101,0.0104,0.0161,0.017,0.0057,0.0056,0.0056,0,-0.0467,-0.0479,-0.0439,-0.0446,-0.0434,-0.0371,-0.0382,-0.0342,-0.0281,-0.0253,-0.0235,-0.0116,-0.0061,0.0005,0.0005,0.0034,0.0077,0.0037,0.0093,0.0096,0.0101,0.0159,0.017,0.0053,0.0054,0.0054,0.0054,0,-0.0517,-0.0524,-0.0532,-0.0519,-0.0498,-0.0497,-0.0439,-0.0411,-0.0367,-0.0318,-0.0249,-0.0167,-0.0094,-0.0068,-0.003,0.0027,0.0049,0.0074,0.01,0.0099,0.0161,0.0173,0.0049,0.005,0.0051,0.0052,0,0,-0.0578,-0.0572,-0.0574,-0.0582,-0.0538,-0.0528,-0.0499,-0.045,-0.0424,-0.0352,-0.0308,-0.0216,-0.0163,-0.0119,-0.0055,0.0008,0.0073,0.0044,0.0049,0.0094,0.0221,0.0268,0.0286,0.0106,0.0108,0.0109,0.0251,0,-0.0631,-0.0674,-0.0643,-0.0666,-0.0682,-0.0612,-0.0589,-0.053,-0.0463,-0.0401,-0.0297,-0.0235,-0.0183,-0.0148,-0.0075,0.0039,0.0102,0.0031,0.0223,0.0228,0.0264,0.0301,0.0238,0.0361,0.0263,0.0265,0.0267,0,-0.069,-0.0711,-0.0755,-0.0745,-0.0742,-0.0738,-0.0681,-0.065,-0.0539,-0.0484,-0.039,-0.0305,-0.0193,-0.0157,0.004,-0.0008,0.0093,0.018,0.0188,0.0263,0.0298,0.035,0.0388,0.0287,0.0286,0.0284,0.0283,0,-0.0764,-0.0783,-0.0824,-0.0822,-0.08,-0.0795,-0.077,-0.0679,-0.0646,-0.0533,-0.0489,-0.0342,-0.026,-0.0115,0.0072,0.0056,0.0289,0.0295,0.0433,0.0437,0.0438,0.044,0.0425,0.0424,0.0424,0.0424,0.0423,0,-0.0835,-0.0864,-0.0866,-0.089,-0.0924,-0.0872,-0.087,-0.0816,-0.0727,-0.0679,-0.0541,-0.046,-0.0247,-0.0082,0.0069,0.0301,0.0296,0.044,0.0485,0.0413,0.0411,0.0388,0.0381,0.0429,0.0428,0.0427,0.0426,0,-0.0911,-0.0912,-0.0962,-0.0965,-0.0967,-0.0989,-0.0956,-0.0942,-0.0846,-0.0777,-0.0745,-0.0536,-0.0308,-0.0087,0.0175,0.0306,0.0512,0.0588,0.0486,0.0518,0.0606,0.0595,0.0754,0.0757,0.0759,0.0761,0.0763,0,-0.0955,-0.0992,-0.1033,-0.1068,-0.1075,-0.1093,-0.1099,-0.1019,-0.0989,-0.0813,-0.078,-0.0545,-0.0351,0.0058,0.0321,0.0608,0.0603,0.0706,0.0669,0.0616,0.0644,0.0629,0.0615,0.064,0.064,0.0641,0.0641,0,-0.1034,-0.1048,-0.109,-0.1171,-0.1202,-0.1226,-0.1219,-0.1214,-0.1093,-0.0992,-0.0805,-0.0633,-0.0231,0.0091,0.046,0.0613,0.0655,0.0727,0.0723,0.0565,0.052,0.0544,0.0531,0.0646,0.0645,0.0645,0.0645,0.0644,-0.1082,-0.1136,-0.1194,-0.1263,-0.1306,-0.1337,-0.1343,-0.1291,-0.1214,-0.1029,-0.0852,-0.0555,-0.0253,0.0282,0.0528,0.0752,0.0757,0.0792,0.0785,0.0779,0.074,0.0702,0.0854,0.0855,0.0855,0.0856,0.0856,0,-0.1138,-0.1196,-0.1278,-0.1353,-0.1412,-0.1406,-0.1399,-0.1351,-0.1244,-0.1038,-0.0815,-0.0453,-0.0084,0.0236,0.0592,0.0808,0.0767,0.0832,0.0723,0.0718,0.0713,0.0665,0.0763,0.0763,0.0764,0.0764,0,0,-0.1166,-0.1258,-0.1304,-0.1417,-0.1466,-0.1492,-0.1479,-0.1367,-0.1209,-0.098,-0.0751,-0.0458,-0.0067,0.0159,0.0421,0.0604,0.0601,0.0615,0.0666,0.0499,0.0492,0.0667,0.0587,0,0,0,0,0]}],[{"header":{"parameterUnit":"m.s-1","parameterCategory":2,"la1":30.2991,"la2":30.254,"lo1":-89.0895,"lo2":-89.0444,"dy":0.0017,"dx":0.0017,"nx":28,"ny":28,"refTime":"2025-11-05T09:00:00:Z","depth":"4","parameterNumber":2,"parameterNumberName":"U-component_of_CURRENTS"},"data":[0,0,0,0,0,0,0,0,0,0,0,0,0,0,0,0,0,0,0,0,0,0,0,0,0,0,0,0,0,0,0,0,0,0,0,0,0,0,0,0,0,0,0,0,0,0,0,0,0,0,0,0,0,0,0,0,0,0,-0.1948,-0.1949,0,-0.2024,-0.2025,-0.2026,-0.207,-0.2071,-0.2071,-0.2071,-0.2126,-0.2127,-0.2128,0,0,0,0,0,0,0,0,0,0,0,0,0,-0.1836,-0.1837,-0.1948,-0.1949,-0.195,-0.2024,-0.2025,-0.2026,-0.207,-0.2071,-0.2071,-0.2072,-0.2125,-0.2127,-0.2128,0,0,0,0,0,0,0,0,0,0,0,0,0,-0.1893,-0.1838,-0.1947,-0.1983,-0.1987,-0.2024,-0.2025,-0.2026,-0.207,-0.2071,-0.2071,-0.2072,-0.2125,-0.2126,-0.2128,-0.2127,0,0,-0.2133,-0.2134,0,0,0,0,0,0,0,0,-0.189,-0.1897,-0.1976,-0.198,-0.1985,-0.204,-0.2006,-0.206,-0.207,-0.2036,-0.2071,-0.2072,-0.2096,-0.21,-0.211,-0.2129,-0.2132,-0.2133,-0.2134,-0.2135,-0.2135,0,0,0,0,0,0,0,-0.1886,-0.1894,-0.1976,-0.1977,-0.1983,-0.1994,-0.2002,-0.2016,-0.206,-0.2039,-0.2043,-0.2055,-0.2098,-0.2109,-0.2112,-0.2133,-0.2133,-0.2135,-0.2136,-0.2136,-0.2243,-0.2245,0,0,0,0,0,0,-0.1881,-0.189,-0.1973,-0.1978,-0.194,-0.1995,-0.2005,-0.202,-0.206,-0.2068,-0.2054,-0.2057,-0.2106,-0.211,-0.2114,-0.2198,-0.2135,-0.2136,-0.2137,-0.2242,-0.2244,-0.2246,0,0,0,0,0,0,-0.1878,-0.1888,-0.197,-0.1937,-0.1949,-0.1997,-0.2014,-0.2021,-0.2065,-0.2073,-0.2079,-0.2094,-0.2106,-0.2112,-0.2161,-0.2197,-0.2137,-0.2139,-0.2239,-0.2242,-0.2245,-0.2313,0,0,0,0,0,0,-0.1875,-0.1886,-0.191,-0.1937,-0.1951,-0.2016,-0.2014,-0.2023,-0.207,-0.2075,-0.2108,-0.2112,-0.2107,-0.2159,-0.2162,-0.2199,-0.214,-0.2237,-0.2241,-0.2244,-0.2309,-0.2318,-0.2326,0,0,0,0,0,-0.187,-0.1897,-0.1911,-0.1922,-0.1978,-0.2017,-0.2026,-0.2059,-0.2072,-0.2099,-0.2125,-0.2112,-0.2183,-0.2162,-0.2166,-0.2203,-0.2235,-0.224,-0.2244,-0.2305,-0.2316,-0.2326,0,0,0,0,0,0,-0.1862,-0.1905,-0.1921,-0.196,-0.1998,-0.2026,-0.2059,-0.2079,-0.2121,-0.2134,-0.2136,-0.2143,-0.2198,-0.2194,-0.2169,-0.2245,-0.2207,-0.2212,-0.2252,-0.2263,-0.2271,-0.2265,-0.2141,0,0,0,0,0,-0.187,-0.1903,-0.1942,-0.1977,-0.1999,-0.2035,-0.2061,-0.2086,-0.2119,-0.214,-0.2165,-0.219,-0.2213,-0.2234,-0.2251,-0.2294,-0.2267,-0.2322,-0.233,-0.2338,-0.2337,-0.2329,-0.2336,-0.226,-0.226,-0.226,0,0,-0.1877,-0.1906,-0.1926,-0.1978,-0.201,-0.2051,-0.2053,-0.2106,-0.2147,-0.2138,-0.221,-0.2223,-0.2231,-0.228,-0.2305,-0.2286,-0.2347,-0.2343,-0.2349,-0.2344,-0.2334,-0.2341,-0.2347,-0.2262,-0.2262,-0.2262,0,0,-0.1896,-0.1935,-0.1967,-0.2004,-0.2062,-0.2085,-0.2108,-0.216,-0.2195,-0.2256,-0.226,-0.2297,-0.2342,-0.2352,-0.236,-0.2428,-0.2392,-0.2443,-0.2485,-0.2478,-0.2484,-0.2488,-0.2462,-0.2464,-0.2449,-0.2449,-0.2449,0,-0.1905,-0.1949,-0.1983,-0.2025,-0.2062,-0.2105,-0.2149,-0.219,-0.2254,-0.2282,-0.2292,-0.2359,-0.2371,-0.2413,-0.2443,-0.2446,-0.243,-0.2443,-0.2488,-0.2491,-0.2495,-0.2467,-0.2468,-0.2453,-0.2452,-0.2452,-0.2452,0,-0.1937,-0.1989,-0.2014,-0.208,-0.2124,-0.2173,-0.2229,-0.2283,-0.2328,-0.2359,-0.2426,-0.2444,-0.2478,-0.2495,-0.2493,-0.2533,-0.251,-0.2496,-0.2456,-0.2506,-0.2474,-0.2474,-0.2458,-0.2457,-0.2456,-0.2455,0,0,-0.1909,-0.2016,-0.2029,-0.207,-0.216,-0.2194,-0.2274,-0.2341,-0.2387,-0.2451,-0.25,-0.2552,-0.2561,-0.257,-0.2575,-0.2579,-0.2595,-0.2559,-0.2557,-0.2523,-0.257,-0.2406,-0.239,-0.2592,-0.2592,-0.2593,-0.2537,0,-0.1924,-0.2005,-0.206,-0.2144,-0.2187,-0.2259,-0.2324,-0.2394,-0.2451,-0.251,-0.254,-0.2587,-0.259,-0.2611,-0.262,-0.2602,-0.2598,-0.261,-0.2534,-0.2531,-0.2371,-0.2385,-0.2594,-0.2536,-0.2536,-0.2536,-0.2536,0,-0.1926,-0.1984,-0.2067,-0.2173,-0.2201,-0.2263,-0.2364,-0.2428,-0.2515,-0.2558,-0.2609,-0.2631,-0.2666,-0.2653,-0.2643,-0.2654,-0.2621,-0.2598,-0.2595,-0.2414,-0.2366,-0.2476,-0.2534,-0.2535,-0.2535,-0.2535,-0.2535,0,-0.1862,-0.1982,-0.2049,-0.2088,-0.2216,-0.2274,-0.2345,-0.2443,-0.2493,-0.2587,-0.2619,-0.2666,-0.2682,-0.2668,-0.2635,-0.2646,-0.2595,-0.2596,-0.2413,-0.2401,-0.2536,-0.2531,-0.2573,-0.2573,-0.2574,-0.2574,-0.2574,0,-0.1831,-0.1888,-0.2033,-0.2068,-0.2147,-0.2252,-0.2336,-0.241,-0.2508,-0.2543,-0.2636,-0.2644,-0.2688,-0.2668,-0.2638,-0.2509,-0.2593,-0.2408,-0.2372,-0.2567,-0.2567,-0.2535,-0.2531,-0.2572,-0.2572,-0.2572,-0.2573,0,-0.1738,-0.1839,-0.1919,-0.2069,-0.2118,-0.2173,-0.2318,-0.2361,-0.2478,-0.2522,-0.2551,-0.2629,-0.2596,-0.2602,-0.2562,-0.2478,-0.2395,-0.2328,-0.2524,-0.2502,-0.2208,-0.2209,-0.2116,-0.2109,-0.2104,-0.2099,-0.2096,0,-0.1691,-0.1727,-0.189,-0.1933,-0.2006,-0.2112,-0.2169,-0.2319,-0.2354,-0.2477,-0.2465,-0.2498,-0.252,-0.2316,-0.2361,-0.2271,-0.2246,-0.2191,-0.2212,-0.2184,-0.216,-0.2169,-0.2177,-0.2087,-0.2086,-0.2084,-0.2083,0,-0.1588,-0.1665,-0.1727,-0.1817,-0.1895,-0.1965,-0.2061,-0.2069,-0.2214,-0.235,-0.2297,-0.227,-0.2225,-0.2185,-0.2123,-0.207,-0.2224,-0.2134,-0.2146,-0.2165,-0.2149,-0.2132,-0.2146,-0.2064,-0.2067,-0.2069,-0.207,0,-0.1503,-0.1518,-0.1608,-0.1664,-0.1753,-0.1767,-0.1852,-0.1883,-0.1938,-0.2085,-0.2058,-0.2101,-0.2186,-0.2078,-0.2026,-0.1954,-0.193,-0.1867,-0.1892,-0.1913,-0.1874,-0.1826,-0.1595,0,0,0,0,0,-0.1405,-0.1398,-0.1441,-0.1494,-0.1574,-0.1618,-0.1744,-0.1832,-0.1981,-0.1879,-0.1963,-0.1914,-0.1846,-0.1878,-0.1756,-0.1938,-0.1939,-0.1791,-0.1881,-0.1961,-0.1982,-0.1957,0,0,0,0,0,0,-0.1337,-0.137,-0.138,-0.1326,-0.1324,-0.139,-0.1455,-0.1568,-0.1528,-0.1686,-0.1651,-0.1782,-0.1738,-0.1862,-0.1706,-0.1715,-0.1729,-0.184,-0.1834,-0.1949,-0.1968,-0.1986,-0.1966,0,0,0,0,0]},{"header":{"parameterUnit":"m.s-1","parameterCategory":2,"la1":30.2991,"la2":30.254,"lo1":-89.0895,"lo2":-89.0444,"dy":0.0017,"dx":0.0017,"nx":28,"ny":28,"refTime":"2025-11-05T09:00:00:Z","depth":"4","parameterNumber":3,"parameterNumberName":"V-component_of_CURRENTS"},"data":[0,0,0,0,0,0,0,0,0,0,0,0,0,0,0,0,0,0,0,0,0,0,0,0,0,0,0,0,0,0,0,0,0,0,0,0,0,0,0,0,0,0,0,0,0,0,0,0,0,0,0,0,0,0,0,0,0,0,-0.0269,-0.0269,0,-0.0215,-0.0215,-0.0214,-0.0174,-0.0173,-0.0173,-0.0173,-0.0075,-0.0073,-0.0071,0,0,0,0,0,0,0,0,0,0,0,0,0,-0.0292,-0.0292,-0.0269,-0.0269,-0.0268,-0.0215,-0.0214,-0.0214,-0.0174,-0.0173,-0.0173,-0.0173,-0.0076,-0.0073,-0.007,0,0,0,0,0,0,0,0,0,0,0,0,0,-0.0263,-0.0292,-0.0269,-0.0243,-0.024,-0.0216,-0.0214,-0.0213,-0.0174,-0.0173,-0.0173,-0.0173,-0.0077,-0.0073,-0.007,-0.0055,0,0,-0.0059,-0.0057,0,0,0,0,0,0,0,0,-0.0265,-0.0262,-0.0247,-0.0245,-0.0242,-0.0202,-0.0187,-0.0159,-0.0174,-0.0197,-0.0173,-0.0173,-0.0115,-0.0108,-0.0097,-0.005,-0.0046,-0.0059,-0.0056,-0.0055,-0.0054,0,0,0,0,0,0,0,-0.0267,-0.0264,-0.0246,-0.0247,-0.0243,-0.0218,-0.0214,-0.0181,-0.0157,-0.0195,-0.0193,-0.0189,-0.0113,-0.0101,-0.0095,-0.0044,-0.0059,-0.0056,-0.0053,-0.0052,0.0032,0.0032,0,0,0,0,0,0,-0.0279,-0.0267,-0.0248,-0.0245,-0.0254,-0.0218,-0.0214,-0.0214,-0.0158,-0.015,-0.0189,-0.0187,-0.0107,-0.0099,-0.0091,-0.0064,-0.0055,-0.0052,-0.005,0.0032,0.0032,0.0032,0,0,0,0,0,0,-0.028,-0.0279,-0.025,-0.0255,-0.025,-0.0219,-0.0219,-0.0213,-0.0203,-0.0154,-0.0145,-0.0187,-0.0107,-0.0096,-0.0062,-0.006,-0.005,-0.0047,0.0032,0.0032,0.0032,-0.0012,0,0,0,0,0,0,-0.0281,-0.0279,-0.0286,-0.0256,-0.025,-0.0243,-0.0219,-0.0212,-0.0202,-0.0199,-0.0149,-0.0139,-0.0105,-0.0068,-0.0059,-0.0054,-0.0044,0.0032,0.0032,0.0032,-0.0011,-0.0014,-0.0016,0,0,0,0,0,-0.0282,-0.0295,-0.0287,-0.0285,-0.026,-0.0243,-0.0238,-0.0213,-0.0203,-0.0202,-0.0165,-0.0141,-0.006,-0.0065,-0.0054,-0.0049,0.0032,0.0032,0.0032,-0.001,-0.0013,-0.0016,0,0,0,0,0,0,-0.0308,-0.0291,-0.0282,-0.0289,-0.0271,-0.0237,-0.0237,-0.0219,-0.019,-0.0187,-0.0139,-0.0127,-0.0097,-0.0068,-0.0074,-0.0024,-0.0011,-0.0008,-0.0046,-0.0049,-0.0051,-0.0063,-0.0041,0,0,0,0,0,-0.0318,-0.0324,-0.0299,-0.0305,-0.0299,-0.0269,-0.0261,-0.0244,-0.0214,-0.0202,-0.0165,-0.0125,-0.0088,-0.0066,-0.0032,-0.0004,0.0032,0.0007,0.0004,0.0001,-0.0,0.006,0.0063,0.0033,0.0033,0.0033,0,0,-0.0331,-0.0322,-0.0326,-0.0311,-0.0296,-0.0293,-0.0263,-0.0255,-0.0248,-0.0195,-0.0174,-0.0135,-0.0084,-0.0053,-0.0037,-0.0027,0.0028,0.0002,-0.0001,-0.0001,0.0061,0.0064,0.0066,0.0033,0.0033,0.0033,0,0,-0.036,-0.0351,-0.0366,-0.0354,-0.0337,-0.0316,-0.0317,-0.0286,-0.0268,-0.0243,-0.0202,-0.016,-0.0111,-0.0067,-0.0039,-0.0035,0.0008,-0.0028,-0.0044,0.0014,0.0017,0.0021,0.0064,0.0071,-0.0025,-0.0025,-0.0025,0,-0.0378,-0.0392,-0.0367,-0.0375,-0.037,-0.033,-0.0341,-0.0315,-0.0276,-0.0258,-0.0245,-0.0157,-0.0115,-0.0062,-0.0061,-0.004,-0.0007,-0.0038,0.0011,0.0015,0.0019,0.0063,0.0071,-0.0027,-0.0027,-0.0027,-0.0026,0,-0.0413,-0.0425,-0.0432,-0.0429,-0.0417,-0.0421,-0.0384,-0.0367,-0.034,-0.0306,-0.0255,-0.0191,-0.0137,-0.0116,-0.0086,-0.0036,-0.0023,-0.0004,0.0017,0.0019,0.0065,0.0075,-0.003,-0.0029,-0.0029,-0.0028,0,0,-0.0452,-0.0459,-0.0462,-0.0474,-0.0449,-0.0447,-0.0428,-0.0398,-0.0386,-0.0331,-0.0301,-0.0226,-0.0186,-0.0152,-0.0101,-0.0046,0.001,-0.0019,-0.0014,0.002,0.0129,0.0108,0.0117,0.0038,0.0039,0.004,0.0147,0,-0.049,-0.0528,-0.0511,-0.0539,-0.0554,-0.0511,-0.0499,-0.0462,-0.0417,-0.0375,-0.029,-0.0246,-0.02,-0.0174,-0.011,-0.0019,0.0035,-0.0021,0.0126,0.013,0.0107,0.0127,0.0046,0.0155,0.0157,0.0159,0.016,0,-0.0529,-0.0552,-0.0594,-0.0603,-0.0604,-0.061,-0.0582,-0.0564,-0.0485,-0.0447,-0.0374,-0.0306,-0.0211,-0.0179,-0.0016,-0.0056,0.0028,0.01,0.0106,0.0108,0.0127,0.0156,0.0179,0.0177,0.0176,0.0175,0.0174,0,-0.0577,-0.0606,-0.0647,-0.065,-0.065,-0.0658,-0.065,-0.0592,-0.0575,-0.0491,-0.0462,-0.0339,-0.0276,-0.015,0.0,-0.0007,0.0176,0.0189,0.025,0.0249,0.0256,0.0252,0.0299,0.0299,0.0298,0.0298,0.0298,0,-0.062,-0.0653,-0.0681,-0.0705,-0.0749,-0.072,-0.0739,-0.0705,-0.0649,-0.0623,-0.0508,-0.0453,-0.0266,-0.0137,-0.0007,0.0152,0.0177,0.025,0.0279,0.0233,0.0225,0.0263,0.0257,0.0302,0.0301,0.0301,0.03,0,-0.0662,-0.068,-0.0735,-0.0764,-0.0779,-0.081,-0.0816,-0.0817,-0.0755,-0.0715,-0.069,-0.053,-0.0357,-0.017,0.0046,0.0135,0.0292,0.0341,0.0272,0.0295,0.0326,0.0317,0.0416,0.0417,0.0417,0.0417,0.0417,0,-0.0685,-0.0721,-0.0793,-0.0837,-0.0858,-0.0898,-0.0922,-0.0881,-0.0868,-0.0758,-0.0735,-0.0565,-0.0442,-0.0143,0.0041,0.029,0.0318,0.0385,0.0361,0.0322,0.034,0.0331,0.0322,0.0417,0.0417,0.0417,0.0417,0,-0.0727,-0.076,-0.0807,-0.0904,-0.0957,-0.1,-0.1022,-0.102,-0.095,-0.0901,-0.0752,-0.058,-0.0383,-0.0147,0.0048,0.0222,0.0335,0.0388,0.0388,0.0366,0.0324,0.034,0.0331,0.0418,0.0418,0.0418,0.0418,0,-0.0756,-0.0804,-0.0876,-0.0952,-0.1029,-0.107,-0.1079,-0.1039,-0.1007,-0.0871,-0.0825,-0.059,-0.0445,-0.0182,-0.0003,0.0168,0.0203,0.0237,0.0246,0.0248,0.0162,0.0082,0.0131,0,0,0,0,0,-0.0773,-0.0829,-0.0915,-0.0996,-0.1073,-0.1105,-0.1126,-0.1112,-0.1049,-0.0952,-0.0879,-0.0685,-0.0387,-0.025,-0.0081,-0.0025,0.0209,0.0173,0.0245,0.0422,0.0421,0.0347,0,0,0,0,0,0,-0.0786,-0.087,-0.0914,-0.1011,-0.1069,-0.1135,-0.1148,-0.1109,-0.1036,-0.0949,-0.0782,-0.0669,-0.0375,-0.0477,-0.0082,-0.0029,0.0031,0.0325,0.0327,0.0422,0.0421,0.0421,0.0344,0,0,0,0,0]}]]